Kezdőlap
METAR-TAF:

METAR-TAF

Repülőterek :

Sheldon Municipal Airport

Sheldon, Iowa, Amerikai Egyesült Államok

földrajzi szélesség: 43-13N, földrajzi hosszúság: 095-50W, magasság: 432 m

Jelenlegi meteorológiai megfigyelések

A jelentés 17 perccel ezelõtt készült, 12:55 UTC
Dél-délkeleti szél 5 kt
Hőmérséklet 23°C
Páratartalom 100%
Légköri nyomás 1016 hPa

METAR: KSHL 281255Z AUTO 16005KT 23/23 A2999 RMK AO2

Idő: 08:12 (13:12 UTC)


TAF: hiányzik

Meteorológiai megfigyelések és előrejelzések több, mint 4000 repülőtéren (METAR és TAF jelentéseket).

A térképen piros és sárga pontok jelzik az elérhető meteorológiai állomásokat.

Mozgassa az egeret a pont fölött, hogy megjelenjen az állomás neve.

Azután kattintson az időjárási megfigyelések és előrejelzések megtekintéséhez.

A térkép megváltoztatása: kattintson a fekete keresztel jelölt zöld gombra ráközelítéshez, a vonallal jelölt zöld gombra távolításhoz, vagy a zöld nyilakra a szomszédos térképek eléréséhez.


METAR-TAF: